Time,TemperatureF,DewpointF,PressureIn,WindDirection,WindDirectionDegrees,WindSpeedMPH,WindSpeedGustMPH,Humidity,HourlyPrecipIn,Conditions,Clouds,dailyrainin,SoftwareType,DateUTC
2013-02-06 00:00:00,45.9,34.8,30.01,North,349,1.0,1.0,65,0.00,,---,0.00,VWS V14.01,2013-02-06 05:00:00,
2013-02-06 00:05:00,46.0,34.5,30.01,NNW,348,1.0,1.0,64,0.00,,---,0.00,VWS V14.01,2013-02-06 05:05:00,
2013-02-06 00:10:00,46.0,34.5,30.01,North,349,1.0,1.0,64,0.00,,---,0.00,VWS V14.01,2013-02-06 05:10:00,
2013-02-06 00:15:00,45.8,34.7,30.01,North,349,0.0,0.0,65,0.00,,---,0.00,VWS V14.01,2013-02-06 05:15:00,
2013-02-06 00:20:00,45.7,34.6,30.01,NNW,348,1.0,1.0,65,0.00,,---,0.00,VWS V14.01,2013-02-06 05:20:00,
2013-02-06 00:25:00,45.5,34.4,30.01,North,349,1.0,1.0,65,0.00,,---,0.00,VWS V14.01,2013-02-06 05:25:00,
2013-02-06 00:30:00,45.5,34.4,30.01,North,349,0.0,0.0,65,0.00,,---,0.00,VWS V14.01,2013-02-06 05:30:00,
2013-02-06 00:35:00,45.4,34.7,30.02,North,349,0.0,0.0,66,0.00,,---,0.00,VWS V14.01,2013-02-06 05:35:00,
2013-02-06 00:40:00,44.7,34.4,30.02,SSW,198,2.0,2.0,67,0.00,,---,0.00,VWS V14.01,2013-02-06 05:40:00,
2013-02-06 00:45:00,44.3,34.4,30.02,SSW,196,1.0,1.0,68,0.00,,---,0.00,VWS V14.01,2013-02-06 05:45:00,
2013-02-06 00:50:00,44.5,34.6,30.02,SSW,198,2.0,2.0,68,0.00,,---,0.00,VWS V14.01,2013-02-06 05:50:00,
2013-02-06 00:55:00,44.4,34.5,30.02,SSW,196,0.0,0.0,68,0.00,,---,0.00,VWS V14.01,2013-02-06 05:55:00,
2013-02-06 01:00:00,44.3,34.4,30.02,SSW,196,0.0,0.0,68,0.00,,---,0.00,VWS V14.01,2013-02-06 06:00:00,
2013-02-06 01:05:00,44.3,34.4,30.02,SSW,196,0.0,0.0,68,0.00,,---,0.00,VWS V14.01,2013-02-06 06:05:00,
2013-02-06 01:10:00,44.1,34.6,30.02,SSW,198,0.0,0.0,69,0.00,,---,0.00,VWS V14.01,2013-02-06 06:10:00,
2013-02-06 01:15:00,44.1,34.6,30.02,SSW,196,0.0,0.0,69,0.00,,---,0.00,VWS V14.01,2013-02-06 06:15:00,
2013-02-06 01:20:00,44.2,34.7,30.02,SSW,198,0.0,0.0,69,0.00,,---,0.00,VWS V14.01,2013-02-06 06:20:00,
2013-02-06 01:25:00,44.0,34.5,30.02,SSW,198,0.0,0.0,69,0.00,,---,0.00,VWS V14.01,2013-02-06 06:25:00,
2013-02-06 01:30:00,43.7,34.2,30.02,SSW,198,0.0,0.0,69,0.00,,---,0.00,VWS V14.01,2013-02-06 06:30:00,
2013-02-06 01:35:00,43.3,34.2,30.02,SSW,196,0.0,0.0,70,0.00,,---,0.00,VWS V14.01,2013-02-06 06:35:00,
2013-02-06 01:40:00,42.8,34.1,30.02,SSW,198,0.0,0.0,71,0.00,,---,0.00,VWS V14.01,2013-02-06 06:40:00,
2013-02-06 01:45:00,42.5,34.1,30.02,SSW,198,0.0,0.0,72,0.00,,---,0.00,VWS V14.01,2013-02-06 06:45:00,
2013-02-06 01:50:00,42.7,34.3,30.02,SSW,198,0.0,0.0,72,0.00,,---,0.00,VWS V14.01,2013-02-06 06:50:00,
2013-02-06 01:55:00,42.8,34.4,30.02,SSW,198,0.0,0.0,72,0.00,,---,0.00,VWS V14.01,2013-02-06 06:55:00,
2013-02-06 02:00:00,41.2,33.9,30.02,WSW,241,0.0,0.0,75,0.00,,---,0.00,VWS V14.01,2013-02-06 07:00:00,
2013-02-06 02:05:00,41.2,34.2,30.02,WSW,240,0.0,0.0,76,0.00,,---,0.00,VWS V14.01,2013-02-06 07:05:00,
2013-02-06 02:10:00,42.1,34.1,30.02,WSW,240,0.0,0.0,73,0.00,,---,0.00,VWS V14.01,2013-02-06 07:10:00,
2013-02-06 02:15:00,42.2,34.2,30.02,WSW,241,0.0,0.0,73,0.00,,---,0.00,VWS V14.01,2013-02-06 07:15:00,
2013-02-06 02:20:00,41.9,33.9,30.03,WSW,240,0.0,0.0,73,0.00,,---,0.00,VWS V14.01,2013-02-06 07:20:00,
2013-02-06 02:25:00,41.4,34.1,30.03,WSW,241,0.0,0.0,75,0.00,,---,0.00,VWS V14.01,2013-02-06 07:25:00,
2013-02-06 02:30:00,41.3,34.3,30.03,West,272,2.0,2.0,76,0.00,,---,0.00,VWS V14.01,2013-02-06 07:30:00,
2013-02-06 02:35:00,41.9,34.2,30.03,WNW,292,1.0,1.0,74,0.00,,---,0.00,VWS V14.01,2013-02-06 07:35:00,
2013-02-06 02:40:00,42.8,34.4,30.03,WNW,292,1.0,1.0,72,0.00,,---,0.00,VWS V14.01,2013-02-06 07:40:00,
2013-02-06 02:45:00,43.6,34.5,30.03,WNW,283,1.0,2.0,70,0.00,,---,0.00,VWS V14.01,2013-02-06 07:45:00,
2013-02-06 02:50:00,43.7,34.6,30.03,West,279,1.0,1.0,70,0.00,,---,0.00,VWS V14.01,2013-02-06 07:50:00,
2013-02-06 02:55:00,43.6,34.5,30.03,West,271,2.0,3.0,70,0.00,,---,0.00,VWS V14.01,2013-02-06 07:55:00,
2013-02-06 02:59:00,43.8,34.3,30.03,West,277,1.0,2.0,69,0.00,,---,0.00,VWS V14.01,2013-02-06 07:59:00,
2013-02-06 03:04:00,44.1,34.6,30.03,West,277,1.0,2.0,69,0.00,,---,0.00,VWS V14.01,2013-02-06 08:04:00,
2013-02-06 03:09:00,44.6,34.7,30.03,West,271,2.0,3.0,68,0.00,,---,0.00,VWS V14.01,2013-02-06 08:09:00,
2013-02-06 03:14:00,44.8,34.5,30.03,WNW,283,1.0,4.0,67,0.00,,---,0.00,VWS V14.01,2013-02-06 08:14:00,
2013-02-06 03:19:00,44.7,34.8,30.03,WNW,288,2.0,3.0,68,0.00,,---,0.00,VWS V14.01,2013-02-06 08:19:00,
2013-02-06 03:24:00,44.5,34.6,30.03,WNW,295,2.0,2.0,68,0.00,,---,0.00,VWS V14.01,2013-02-06 08:24:00,
2013-02-06 03:29:00,44.3,34.4,30.03,NW,320,0.0,1.0,68,0.00,,---,0.00,VWS V14.01,2013-02-06 08:29:00,
2013-02-06 03:34:00,44.1,34.6,30.03,WNW,294,1.0,1.0,69,0.00,,---,0.00,VWS V14.01,2013-02-06 08:34:00,
2013-02-06 03:39:00,44.2,34.7,30.03,WNW,292,2.0,2.0,69,0.00,,---,0.00,VWS V14.01,2013-02-06 08:39:00,
2013-02-06 03:44:00,44.1,34.6,30.03,West,260,2.0,3.0,69,0.00,,---,0.00,VWS V14.01,2013-02-06 08:44:00,
2013-02-06 03:49:00,42.3,33.6,30.03,West,259,3.0,3.0,71,0.00,,---,0.00,VWS V14.01,2013-02-06 08:49:00,
2013-02-06 03:54:00,42.7,34.7,30.03,WSW,250,2.0,3.0,73,0.00,,---,0.00,VWS V14.01,2013-02-06 08:54:00,
2013-02-06 03:59:00,43.3,34.9,30.03,West,264,2.0,4.0,72,0.00,,---,0.00,VWS V14.01,2013-02-06 08:59:00,
2013-02-06 04:04:00,43.5,35.1,30.03,West,261,1.0,1.0,72,0.00,,---,0.00,VWS V14.01,2013-02-06 09:04:00,
2013-02-06 04:09:00,43.4,35.0,30.04,WSW,256,2.0,2.0,72,0.00,,---,0.00,VWS V14.01,2013-02-06 09:09:00,
2013-02-06 04:14:00,43.1,34.7,30.04,WSW,257,1.0,1.0,72,0.00,,---,0.00,VWS V14.01,2013-02-06 09:14:00,
2013-02-06 04:19:00,43.2,35.1,30.04,West,264,1.0,1.0,73,0.00,,---,0.00,VWS V14.01,2013-02-06 09:19:00,
2013-02-06 04:24:00,43.5,35.1,30.04,WSW,249,2.0,4.0,72,0.00,,---,0.00,VWS V14.01,2013-02-06 09:24:00,
2013-02-06 04:29:00,43.5,35.1,30.04,West,269,0.0,1.0,72,0.00,,---,0.00,VWS V14.01,2013-02-06 09:29:00,
2013-02-06 04:34:00,43.3,34.9,30.05,West,269,0.0,1.0,72,0.00,,---,0.00,VWS V14.01,2013-02-06 09:34:00,
2013-02-06 04:39:00,42.9,34.8,30.05,West,269,1.0,1.0,73,0.00,,---,0.00,VWS V14.01,2013-02-06 09:39:00,
2013-02-06 04:44:00,42.7,34.7,30.05,WSW,254,2.0,2.0,73,0.00,,---,0.00,VWS V14.01,2013-02-06 09:44:00,
2013-02-06 04:49:00,42.7,35.0,30.05,West,275,3.0,3.0,74,0.00,,---,0.00,VWS V14.01,2013-02-06 09:49:00,
2013-02-06 04:54:00,42.9,34.8,30.06,West,271,2.0,2.0,73,0.00,,---,0.00,VWS V14.01,2013-02-06 09:54:00,
2013-02-06 04:59:00,42.9,34.8,30.06,West,273,3.0,4.0,73,0.00,,---,0.00,VWS V14.01,2013-02-06 09:59:00,
2013-02-06 05:04:00,43.1,35.0,30.06,West,265,3.0,4.0,73,0.00,,---,0.00,VWS V14.01,2013-02-06 10:04:00,
2013-02-06 05:09:00,43.1,35.0,30.06,West,265,1.0,1.0,73,0.00,,---,0.00,VWS V14.01,2013-02-06 10:09:00,
2013-02-06 05:14:00,43.0,35.0,30.06,West,259,1.0,1.0,73,0.00,,---,0.00,VWS V14.01,2013-02-06 10:14:00,
2013-02-06 05:19:00,42.9,34.8,30.06,West,259,0.0,0.0,73,0.00,,---,0.00,VWS V14.01,2013-02-06 10:19:00,
2013-02-06 05:24:00,42.7,35.0,30.07,West,259,0.0,0.0,74,0.00,,---,0.00,VWS V14.01,2013-02-06 10:24:00,
2013-02-06 05:29:00,42.5,34.8,30.07,West,259,0.0,0.0,74,0.00,,---,0.00,VWS V14.01,2013-02-06 10:29:00,
2013-02-06 05:34:00,42.5,34.8,30.07,West,259,1.0,1.0,74,0.00,,---,0.00,VWS V14.01,2013-02-06 10:34:00,
2013-02-06 05:39:00,42.6,34.9,30.07,West,261,2.0,2.0,74,0.00,,---,0.00,VWS V14.01,2013-02-06 10:39:00,
2013-02-06 05:44:00,42.6,34.9,30.07,WNW,287,1.0,1.0,74,0.00,,---,0.00,VWS V14.01,2013-02-06 10:44:00,
2013-02-06 05:49:00,42.1,34.8,30.08,NW,311,0.0,0.0,75,0.00,,---,0.00,VWS V14.01,2013-02-06 10:49:00,
2013-02-06 05:54:00,41.6,34.6,30.08,NW,311,0.0,0.0,76,0.00,,---,0.00,VWS V14.01,2013-02-06 10:54:00,
2013-02-06 05:59:00,41.3,34.3,30.08,NW,323,0.0,0.0,76,0.00,,---,0.00,VWS V14.01,2013-02-06 10:59:00,
2013-02-06 06:04:00,41.1,34.5,30.09,NNW,333,1.0,2.0,77,0.00,,---,0.00,VWS V14.01,2013-02-06 11:04:00,
2013-02-06 06:09:00,41.1,34.5,30.09,NNW,332,1.0,1.0,77,0.00,,---,0.00,VWS V14.01,2013-02-06 11:09:00,
2013-02-06 06:14:00,41.1,34.5,30.09,NNW,333,0.0,0.0,77,0.00,,---,0.00,VWS V14.01,2013-02-06 11:14:00,
2013-02-06 06:19:00,40.9,34.6,30.09,NNW,333,0.0,0.0,78,0.00,,---,0.00,VWS V14.01,2013-02-06 11:19:00,
2013-02-06 06:24:00,40.7,34.4,30.10,NNW,334,0.0,0.0,78,0.00,,---,0.00,VWS V14.01,2013-02-06 11:24:00,
2013-02-06 06:29:00,40.6,34.6,30.10,NNW,336,0.0,0.0,79,0.00,,---,0.00,VWS V14.01,2013-02-06 11:29:00,
2013-02-06 06:34:00,40.7,34.4,30.10,NNW,337,0.0,0.0,78,0.00,,---,0.00,VWS V14.01,2013-02-06 11:34:00,
2013-02-06 06:39:00,40.8,34.8,30.10,NNW,336,0.0,0.0,79,0.00,,---,0.00,VWS V14.01,2013-02-06 11:39:00,
2013-02-06 06:44:00,41.1,35.1,30.11,NW,314,0.0,0.0,79,0.00,,---,0.00,VWS V14.01,2013-02-06 11:44:00,
2013-02-06 06:49:00,41.7,35.4,30.11,WNW,288,1.0,2.0,78,0.00,,---,0.00,VWS V14.01,2013-02-06 11:49:00,
2013-02-06 06:54:00,41.8,35.1,30.11,WNW,298,1.0,1.0,77,0.00,,---,0.00,VWS V14.01,2013-02-06 11:54:00,
2013-02-06 06:59:00,41.6,34.9,30.12,NNE,15,2.0,2.0,77,0.00,,---,0.00,VWS V14.01,2013-02-06 11:59:00,
2013-02-06 07:04:00,41.1,34.5,30.12,NNE,14,0.0,0.0,77,0.00,,---,0.00,VWS V14.01,2013-02-06 12:04:00,
2013-02-06 07:09:00,40.8,34.5,30.12,NNE,14,0.0,1.0,78,0.00,,---,0.00,VWS V14.01,2013-02-06 12:09:00,
2013-02-06 07:14:00,40.6,34.6,30.13,NNE,15,0.0,0.0,79,0.00,,---,0.00,VWS V14.01,2013-02-06 12:14:00,
2013-02-06 07:19:00,40.4,34.4,30.13,NNW,342,0.0,0.0,79,0.00,,---,0.00,VWS V14.01,2013-02-06 12:19:00,
2013-02-06 07:24:00,39.9,34.2,30.13,NNW,342,0.0,0.0,80,0.00,,---,0.00,VWS V14.01,2013-02-06 12:24:00,
2013-02-06 07:29:00,39.4,33.8,30.14,NNW,342,0.0,0.0,80,0.00,,---,0.00,VWS V14.01,2013-02-06 12:29:00,
2013-02-06 07:34:00,39.2,33.9,30.14,NNW,342,1.0,1.0,81,0.00,,---,0.00,VWS V14.01,2013-02-06 12:34:00,
2013-02-06 07:39:00,39.1,33.8,30.15,NNE,18,4.0,4.0,81,0.00,,---,0.00,VWS V14.01,2013-02-06 12:39:00,
2013-02-06 07:44:00,39.3,34.0,30.15,NNE,13,3.0,3.0,81,0.00,,---,0.00,VWS V14.01,2013-02-06 12:44:00,
2013-02-06 07:49:00,40.0,34.3,30.15,NNE,24,4.0,4.0,80,0.00,,---,0.00,VWS V14.01,2013-02-06 12:49:00,
2013-02-06 07:54:00,40.6,34.3,30.15,NNE,27,4.0,4.0,78,0.00,,---,0.00,VWS V14.01,2013-02-06 12:54:00,
2013-02-06 07:59:00,41.1,34.8,30.15,NNE,30,3.0,3.0,78,0.00,,---,0.00,VWS V14.01,2013-02-06 12:59:00,
2013-02-06 08:04:00,41.6,34.9,30.15,NNE,28,4.0,4.0,77,0.00,,---,0.00,VWS V14.01,2013-02-06 13:04:00,
2013-02-06 08:09:00,42.0,35.0,30.16,NNE,27,4.0,4.0,76,0.00,,---,0.00,VWS V14.01,2013-02-06 13:09:00,
2013-02-06 08:14:00,42.5,35.2,30.16,NNE,31,4.0,4.0,75,0.00,,---,0.00,VWS V14.01,2013-02-06 13:14:00,
2013-02-06 08:19:00,43.4,35.3,30.16,NNE,32,2.0,3.0,73,0.00,,---,0.00,VWS V14.01,2013-02-06 13:19:00,
2013-02-06 08:24:00,44.1,36.0,30.16,North,351,3.0,4.0,73,0.00,,---,0.00,VWS V14.01,2013-02-06 13:24:00,
2013-02-06 08:29:00,44.9,36.1,30.16,NNW,346,3.0,3.0,71,0.00,,---,0.00,VWS V14.01,2013-02-06 13:29:00,
2013-02-06 08:34:00,45.9,36.3,30.17,NNW,348,5.0,5.0,69,0.00,,---,0.00,VWS V14.01,2013-02-06 13:34:00,
2013-02-06 08:39:00,46.9,36.5,30.17,North,5,10.0,11.0,67,0.00,,---,0.00,VWS V14.01,2013-02-06 13:39:00,
2013-02-06 08:44:00,47.9,36.3,30.17,NNE,23,7.0,11.0,64,0.00,,---,0.00,VWS V14.01,2013-02-06 13:44:00,
2013-02-06 08:49:00,48.7,36.3,30.17,NE,36,3.0,5.0,62,0.00,,---,0.00,VWS V14.01,2013-02-06 13:49:00,
2013-02-06 08:54:00,49.2,36.3,30.18,NE,39,4.0,5.0,61,0.00,,---,0.00,VWS V14.01,2013-02-06 13:54:00,
2013-02-06 08:59:00,49.7,36.8,30.18,WNW,298,4.0,4.0,61,0.00,,---,0.00,VWS V14.01,2013-02-06 13:59:00,
2013-02-06 09:04:00,50.1,36.3,30.18,North,350,4.0,6.0,59,0.00,,---,0.00,VWS V14.01,2013-02-06 14:04:00,
2013-02-06 09:09:00,50.3,35.7,30.18,North,360,5.0,7.0,57,0.00,,---,0.00,VWS V14.01,2013-02-06 14:09:00,
2013-02-06 09:14:00,50.6,35.9,30.18,North,5,3.0,7.0,57,0.00,,---,0.00,VWS V14.01,2013-02-06 14:14:00,
2013-02-06 09:19:00,50.9,35.8,30.18,NNE,32,10.0,10.0,56,0.00,,---,0.00,VWS V14.01,2013-02-06 14:19:00,
2013-02-06 09:24:00,51.3,36.2,30.18,NNE,26,7.0,7.0,56,0.00,,---,0.00,VWS V14.01,2013-02-06 14:24:00,
2013-02-06 09:29:00,51.6,36.0,30.19,NNW,346,8.0,9.0,55,0.00,,---,0.00,VWS V14.01,2013-02-06 14:29:00,
2013-02-06 09:34:00,51.9,35.8,30.19,NNE,22,8.0,10.0,54,0.00,,---,0.00,VWS V14.01,2013-02-06 14:34:00,
2013-02-06 09:39:00,52.1,35.5,30.18,NNE,28,13.0,13.0,53,0.00,,---,0.00,VWS V14.01,2013-02-06 14:39:00,
2013-02-06 09:44:00,52.2,35.6,30.18,NNE,17,8.0,11.0,53,0.00,,---,0.00,VWS V14.01,2013-02-06 14:44:00,
2013-02-06 09:49:00,52.4,35.8,30.19,NNE,26,6.0,11.0,53,0.00,,---,0.00,VWS V14.01,2013-02-06 14:49:00,
2013-02-06 09:54:00,52.7,35.6,30.19,NNE,14,6.0,8.0,52,0.00,,---,0.00,VWS V14.01,2013-02-06 14:54:00,
2013-02-06 09:59:00,52.8,35.2,30.19,NNW,334,6.0,6.0,51,0.00,,---,0.00,VWS V14.01,2013-02-06 14:59:00,
2013-02-06 10:04:00,53.0,35.4,30.19,NE,42,7.0,7.0,51,0.00,,---,0.00,VWS V14.01,2013-02-06 15:04:00,
2013-02-06 10:09:00,53.0,35.4,30.19,ENE,62,5.0,5.0,51,0.00,,---,0.00,VWS V14.01,2013-02-06 15:09:00,
2013-02-06 10:14:00,53.1,35.0,30.20,NNE,30,4.0,7.0,50,0.00,,---,0.00,VWS V14.01,2013-02-06 15:14:00,
2013-02-06 10:19:00,53.2,34.5,30.19,NNE,31,7.0,9.0,49,0.00,,---,0.00,VWS V14.01,2013-02-06 15:19:00,
2013-02-06 10:24:00,53.3,34.7,30.20,NE,38,5.0,9.0,49,0.00,,---,0.00,VWS V14.01,2013-02-06 15:24:00,
2013-02-06 10:29:00,53.6,34.9,30.19,NE,42,7.0,10.0,49,0.00,,---,0.00,VWS V14.01,2013-02-06 15:29:00,
2013-02-06 10:34:00,53.7,35.0,30.19,NNE,31,7.0,8.0,49,0.00,,---,0.00,VWS V14.01,2013-02-06 15:34:00,
2013-02-06 10:39:00,54.1,35.4,30.19,NNW,331,9.0,9.0,49,0.00,,---,0.00,VWS V14.01,2013-02-06 15:39:00,
2013-02-06 10:44:00,54.5,34.7,30.19,North,349,6.0,7.0,47,0.00,,---,0.00,VWS V14.01,2013-02-06 15:44:00,
2013-02-06 10:49:00,54.5,34.7,30.19,NNE,12,7.0,10.0,47,0.00,,---,0.00,VWS V14.01,2013-02-06 15:49:00,
2013-02-06 10:54:00,54.5,34.2,30.20,NE,39,4.0,8.0,46,0.00,,---,0.00,VWS V14.01,2013-02-06 15:54:00,
2013-02-06 10:59:00,55.1,34.2,30.20,NNE,22,8.0,10.0,45,0.00,,---,0.00,VWS V14.01,2013-02-06 15:59:00,
2013-02-06 11:04:00,55.2,34.2,30.20,NNE,16,4.0,7.0,45,0.00,,---,0.00,VWS V14.01,2013-02-06 16:04:00,
2013-02-06 11:08:00,55.2,34.8,30.20,NNE,18,9.0,9.0,46,0.00,,---,0.00,VWS V14.01,2013-02-06 16:08:00,
2013-02-06 11:13:00,55.1,34.2,30.20,NW,319,4.0,7.0,45,0.00,,---,0.00,VWS V14.01,2013-02-06 16:13:00,
2013-02-06 11:18:00,55.5,34.5,30.20,North,5,6.0,7.0,45,0.00,,---,0.00,VWS V14.01,2013-02-06 16:18:00,
2013-02-06 11:23:00,55.9,34.3,30.20,NNE,24,1.0,4.0,44,0.00,,---,0.00,VWS V14.01,2013-02-06 16:23:00,
2013-02-06 11:28:00,56.2,34.6,30.19,West,272,3.0,3.0,44,0.00,,---,0.00,VWS V14.01,2013-02-06 16:28:00,
2013-02-06 11:33:00,56.7,34.5,30.19,NE,36,5.0,7.0,43,0.00,,---,0.00,VWS V14.01,2013-02-06 16:33:00,
2013-02-06 11:38:00,56.4,34.2,30.19,NNE,32,4.0,5.0,43,0.00,,---,0.00,VWS V14.01,2013-02-06 16:38:00,
2013-02-06 11:43:00,56.4,34.2,30.19,NNE,13,1.0,5.0,43,0.00,,---,0.00,VWS V14.01,2013-02-06 16:43:00,
2013-02-06 11:48:00,57.1,34.2,30.19,West,279,4.0,4.0,42,0.00,,---,0.00,VWS V14.01,2013-02-06 16:48:00,
2013-02-06 11:53:00,57.7,34.8,30.18,NE,36,2.0,2.0,42,0.00,,---,0.00,VWS V14.01,2013-02-06 16:53:00,
2013-02-06 11:58:00,58.2,35.2,30.18,NE,39,5.0,5.0,42,0.00,,---,0.00,VWS V14.01,2013-02-06 16:58:00,
2013-02-06 12:03:00,58.5,33.7,30.19,North,350,2.0,5.0,39,0.00,,---,0.00,VWS V14.01,2013-02-06 17:03:00,
2013-02-06 12:08:00,59.0,33.5,30.19,NNE,20,8.0,8.0,38,0.00,,---,0.00,VWS V14.01,2013-02-06 17:08:00,
2013-02-06 12:13:00,59.0,32.8,30.18,WSW,248,5.0,6.0,37,0.00,,---,0.00,VWS V14.01,2013-02-06 17:13:00,
2013-02-06 12:18:00,59.5,32.5,30.19,WNW,290,3.0,3.0,36,0.00,,---,0.00,VWS V14.01,2013-02-06 17:18:00,
2013-02-06 12:23:00,59.7,32.7,30.19,North,350,6.0,6.0,36,0.00,,---,0.00,VWS V14.01,2013-02-06 17:23:00,
2013-02-06 12:28:00,59.5,32.5,30.19,NW,305,3.0,3.0,36,0.00,,---,0.00,VWS V14.01,2013-02-06 17:28:00,
2013-02-06 12:33:00,59.4,33.1,30.19,West,263,3.0,3.0,37,0.00,,---,0.00,VWS V14.01,2013-02-06 17:33:00,
2013-02-06 12:38:00,59.6,31.2,30.18,WSW,256,13.0,13.0,34,0.00,,---,0.00,VWS V14.01,2013-02-06 17:38:00,
2013-02-06 12:43:00,59.7,32.0,30.18,WNW,288,1.0,1.0,35,0.00,,---,0.00,VWS V14.01,2013-02-06 17:43:00,
2013-02-06 12:48:00,60.9,31.6,30.17,West,267,3.0,4.0,33,0.00,,---,0.00,VWS V14.01,2013-02-06 17:48:00,
2013-02-06 12:53:00,60.3,31.8,30.17,NE,54,5.0,5.0,34,0.00,,---,0.00,VWS V14.01,2013-02-06 17:53:00,
2013-02-06 12:58:00,60.3,31.8,30.17,NW,311,4.0,6.0,34,0.00,,---,0.00,VWS V14.01,2013-02-06 17:58:00,
2013-02-06 13:03:00,60.6,31.4,30.17,West,279,3.0,3.0,33,0.00,,---,0.00,VWS V14.01,2013-02-06 18:03:00,
2013-02-06 13:08:00,61.0,30.2,30.17,WNW,301,4.0,9.0,31,0.00,,---,0.00,VWS V14.01,2013-02-06 18:08:00,
2013-02-06 13:13:00,60.6,29.8,30.17,West,269,4.0,5.0,31,0.00,,---,0.00,VWS V14.01,2013-02-06 18:13:00,
2013-02-06 13:18:00,60.7,29.1,30.17,WSW,250,5.0,5.0,30,0.00,,---,0.00,VWS V14.01,2013-02-06 18:18:00,
2013-02-06 13:23:00,60.8,29.2,30.17,WNW,287,5.0,5.0,30,0.00,,---,0.00,VWS V14.01,2013-02-06 18:23:00,
2013-02-06 13:28:00,61.3,29.6,30.17,NE,52,3.0,4.0,30,0.00,,---,0.00,VWS V14.01,2013-02-06 18:28:00,
2013-02-06 13:33:00,61.4,28.0,30.17,NNW,329,4.0,5.0,28,0.00,,---,0.00,VWS V14.01,2013-02-06 18:33:00,
2013-02-06 13:38:00,61.5,29.0,30.17,NNW,330,5.0,5.0,29,0.00,,---,0.00,VWS V14.01,2013-02-06 18:38:00,
2013-02-06 13:43:00,61.2,28.7,30.17,West,272,0.0,1.0,29,0.00,,---,0.00,VWS V14.01,2013-02-06 18:43:00,
2013-02-06 13:48:00,61.3,28.8,30.17,West,264,5.0,7.0,29,0.00,,---,0.00,VWS V14.01,2013-02-06 18:48:00,
2013-02-06 13:53:00,61.4,28.0,30.16,WNW,288,4.0,8.0,28,0.00,,---,0.00,VWS V14.01,2013-02-06 18:53:00,
2013-02-06 13:58:00,61.8,28.4,30.16,North,351,3.0,4.0,28,0.00,,---,0.00,VWS V14.01,2013-02-06 18:58:00,
2013-02-06 14:03:00,61.8,28.4,30.16,NW,317,2.0,4.0,28,0.00,,---,0.00,VWS V14.01,2013-02-06 19:03:00,
2013-02-06 14:08:00,62.0,27.7,30.16,WNW,291,6.0,7.0,27,0.00,,---,0.00,VWS V14.01,2013-02-06 19:08:00,
2013-02-06 14:13:00,62.1,28.6,30.16,WNW,284,4.0,4.0,28,0.00,,---,0.00,VWS V14.01,2013-02-06 19:13:00,
2013-02-06 14:18:00,62.5,28.1,30.16,NNE,12,1.0,2.0,27,0.00,,---,0.00,VWS V14.01,2013-02-06 19:18:00,
2013-02-06 14:23:00,62.7,27.4,30.16,NNE,24,7.0,7.0,26,0.00,,---,0.00,VWS V14.01,2013-02-06 19:23:00,
2013-02-06 14:28:00,62.5,28.1,30.16,NW,314,3.0,4.0,27,0.00,,---,0.00,VWS V14.01,2013-02-06 19:28:00,
2013-02-06 14:33:00,62.9,28.4,30.16,West,273,6.0,6.0,27,0.00,,---,0.00,VWS V14.01,2013-02-06 19:33:00,
2013-02-06 14:38:00,62.6,26.3,30.16,WSW,256,8.0,8.0,25,0.00,,---,0.00,VWS V14.01,2013-02-06 19:38:00,
2013-02-06 14:43:00,62.3,27.0,30.16,NNE,12,2.0,3.0,26,0.00,,---,0.00,VWS V14.01,2013-02-06 19:43:00,
2013-02-06 14:48:00,62.7,26.4,30.16,NNW,344,4.0,4.0,25,0.00,,---,0.00,VWS V14.01,2013-02-06 19:48:00,
2013-02-06 14:53:00,63.0,26.6,30.16,West,276,5.0,5.0,25,0.00,,---,0.00,VWS V14.01,2013-02-06 19:53:00,
2013-02-06 14:58:00,63.1,24.7,30.16,NW,311,1.0,3.0,23,0.00,,---,0.00,VWS V14.01,2013-02-06 19:58:00,
2013-02-06 15:03:00,63.0,24.6,30.16,West,277,7.0,7.0,23,0.00,,---,0.00,VWS V14.01,2013-02-06 20:03:00,
2013-02-06 15:08:00,62.9,25.6,30.16,North,350,4.0,6.0,24,0.00,,---,0.00,VWS V14.01,2013-02-06 20:08:00,
2013-02-06 15:13:00,63.0,24.6,30.16,West,275,4.0,5.0,23,0.00,,---,0.00,VWS V14.01,2013-02-06 20:13:00,
2013-02-06 15:18:00,63.4,25.0,30.16,WNW,288,5.0,5.0,23,0.00,,---,0.00,VWS V14.01,2013-02-06 20:18:00,
2013-02-06 15:23:00,63.5,25.1,30.16,NNE,28,5.0,6.0,23,0.00,,---,0.00,VWS V14.01,2013-02-06 20:23:00,
2013-02-06 15:28:00,63.1,24.7,30.16,West,277,3.0,3.0,23,0.00,,---,0.00,VWS V14.01,2013-02-06 20:28:00,
2013-02-06 15:33:00,62.9,23.5,30.16,West,260,4.0,4.0,22,0.00,,---,0.00,VWS V14.01,2013-02-06 20:33:00,
2013-02-06 15:38:00,62.8,25.5,30.17,NNE,33,7.0,8.0,24,0.00,,---,0.00,VWS V14.01,2013-02-06 20:38:00,
2013-02-06 15:43:00,62.5,25.2,30.16,NE,34,4.0,5.0,24,0.00,,---,0.00,VWS V14.01,2013-02-06 20:43:00,
2013-02-06 15:48:00,62.3,24.1,30.16,NE,49,4.0,4.0,23,0.00,,---,0.00,VWS V14.01,2013-02-06 20:48:00,
2013-02-06 15:53:00,62.3,25.1,30.17,West,277,1.0,1.0,24,0.00,,---,0.00,VWS V14.01,2013-02-06 20:53:00,
2013-02-06 15:58:00,63.1,24.7,30.17,NW,325,2.0,2.0,23,0.00,,---,0.00,VWS V14.01,2013-02-06 20:58:00,
2013-02-06 16:03:00,63.0,25.7,30.17,NNW,338,1.0,2.0,24,0.00,,---,0.00,VWS V14.01,2013-02-06 21:03:00,
2013-02-06 16:08:00,64.1,24.5,30.17,NE,50,5.0,6.0,22,0.00,,---,0.00,VWS V14.01,2013-02-06 21:08:00,
2013-02-06 16:13:00,63.0,23.6,30.17,NNE,23,7.0,7.0,22,0.00,,---,0.00,VWS V14.01,2013-02-06 21:13:00,
2013-02-06 16:18:00,62.4,24.1,30.17,NNW,347,5.0,5.0,23,0.00,,---,0.00,VWS V14.01,2013-02-06 21:18:00,
2013-02-06 16:23:00,62.2,24.0,30.17,NNE,27,5.0,5.0,23,0.00,,---,0.00,VWS V14.01,2013-02-06 21:23:00,
2013-02-06 16:28:00,62.0,23.8,30.18,NNE,27,2.0,2.0,23,0.00,,---,0.00,VWS V14.01,2013-02-06 21:28:00,
2013-02-06 16:33:00,62.1,23.9,30.17,NE,49,3.0,5.0,23,0.00,,---,0.00,VWS V14.01,2013-02-06 21:33:00,
2013-02-06 16:38:00,62.1,22.8,30.18,NNW,347,2.0,3.0,22,0.00,,---,0.00,VWS V14.01,2013-02-06 21:38:00,
2013-02-06 16:43:00,62.0,23.8,30.18,North,350,2.0,4.0,23,0.00,,---,0.00,VWS V14.01,2013-02-06 21:43:00,
2013-02-06 16:48:00,61.9,22.7,30.18,NNE,23,4.0,7.0,22,0.00,,---,0.00,VWS V14.01,2013-02-06 21:48:00,
2013-02-06 16:53:00,61.6,23.5,30.18,NNW,338,3.0,7.0,23,0.00,,---,0.00,VWS V14.01,2013-02-06 21:53:00,
2013-02-06 16:58:00,61.5,23.4,30.18,NNE,15,4.0,4.0,23,0.00,,---,0.00,VWS V14.01,2013-02-06 21:58:00,
2013-02-06 17:03:00,61.5,23.4,30.18,NNE,28,3.0,4.0,23,0.00,,---,0.00,VWS V14.01,2013-02-06 22:03:00,
2013-02-06 17:08:00,61.4,23.3,30.19,NNW,340,3.0,5.0,23,0.00,,---,0.00,VWS V14.01,2013-02-06 22:08:00,
2013-02-06 17:13:00,61.3,23.2,30.19,NE,36,1.0,2.0,23,0.00,,---,0.00,VWS V14.01,2013-02-06 22:13:00,
2013-02-06 17:18:00,61.2,23.1,30.19,NNE,27,2.0,5.0,23,0.00,,---,0.00,VWS V14.01,2013-02-06 22:18:00,
2013-02-06 17:23:00,61.0,24.0,30.19,NNE,22,3.0,3.0,24,0.00,,---,0.00,VWS V14.01,2013-02-06 22:23:00,
2013-02-06 17:28:00,60.6,23.6,30.19,North,350,4.0,6.0,24,0.00,,---,0.00,VWS V14.01,2013-02-06 22:28:00,
2013-02-06 17:33:00,60.2,23.3,30.20,NNE,27,3.0,4.0,24,0.00,,---,0.00,VWS V14.01,2013-02-06 22:33:00,
2013-02-06 17:38:00,59.8,23.9,30.20,NE,36,2.0,3.0,25,0.00,,---,0.00,VWS V14.01,2013-02-06 22:38:00,
2013-02-06 17:43:00,59.3,23.5,30.20,NNW,347,3.0,3.0,25,0.00,,---,0.00,VWS V14.01,2013-02-06 22:43:00,
2013-02-06 17:48:00,58.8,24.0,30.21,NNE,27,3.0,4.0,26,0.00,,---,0.00,VWS V14.01,2013-02-06 22:48:00,
2013-02-06 17:53:00,58.3,23.6,30.21,NNE,26,2.0,4.0,26,0.00,,---,0.00,VWS V14.01,2013-02-06 22:53:00,
2013-02-06 17:58:00,57.8,24.1,30.21,NNE,25,2.0,3.0,27,0.00,,---,0.00,VWS V14.01,2013-02-06 22:58:00,
2013-02-06 18:03:00,57.5,23.8,30.21,NNE,26,2.0,3.0,27,0.00,,---,0.00,VWS V14.01,2013-02-06 23:03:00,
2013-02-06 18:08:00,57.2,23.5,30.21,NNE,27,2.0,3.0,27,0.00,,---,0.00,VWS V14.01,2013-02-06 23:08:00,
2013-02-06 18:13:00,56.9,24.1,30.21,NE,38,2.0,2.0,28,0.00,,---,0.00,VWS V14.01,2013-02-06 23:13:00,
2013-02-06 18:18:00,56.6,23.9,30.22,NNE,32,2.0,2.0,28,0.00,,---,0.00,VWS V14.01,2013-02-06 23:18:00,
2013-02-06 18:23:00,56.3,24.5,30.22,NNE,32,2.0,2.0,29,0.00,,---,0.00,VWS V14.01,2013-02-06 23:23:00,
2013-02-06 18:28:00,56.0,24.2,30.22,NNE,22,2.0,3.0,29,0.00,,---,0.00,VWS V14.01,2013-02-06 23:28:00,
2013-02-06 18:33:00,55.9,24.1,30.22,NNE,24,2.0,3.0,29,0.00,,---,0.00,VWS V14.01,2013-02-06 23:33:00,
2013-02-06 18:38:00,55.6,24.7,30.23,NE,34,2.0,3.0,30,0.00,,---,0.00,VWS V14.01,2013-02-06 23:38:00,
2013-02-06 18:43:00,55.3,24.4,30.23,NE,43,2.0,2.0,30,0.00,,---,0.00,VWS V14.01,2013-02-06 23:43:00,
2013-02-06 18:48:00,55.0,24.9,30.23,ENE,59,2.0,3.0,31,0.00,,---,0.00,VWS V14.01,2013-02-06 23:48:00,
2013-02-06 18:53:00,54.5,24.5,30.23,ENE,68,3.0,3.0,31,0.00,,---,0.00,VWS V14.01,2013-02-06 23:53:00,
2013-02-06 18:57:00,54.2,25.0,30.23,ENE,66,2.0,3.0,32,0.00,,---,0.00,VWS V14.01,2013-02-06 23:57:00,
2013-02-06 19:02:00,53.9,25.5,30.23,NE,54,3.0,3.0,33,0.00,,---,0.00,VWS V14.01,2013-02-07 00:02:00,
2013-02-06 19:07:00,53.8,25.4,30.23,NE,52,2.0,3.0,33,0.00,,---,0.00,VWS V14.01,2013-02-07 00:07:00,
2013-02-06 19:12:00,53.6,25.9,30.24,NE,50,3.0,3.0,34,0.00,,---,0.00,VWS V14.01,2013-02-07 00:12:00,
2013-02-06 19:17:00,53.6,25.9,30.24,NE,38,3.0,3.0,34,0.00,,---,0.00,VWS V14.01,2013-02-07 00:17:00,
2013-02-06 19:22:00,53.5,26.5,30.24,NE,47,2.0,4.0,35,0.00,,---,0.00,VWS V14.01,2013-02-07 00:22:00,
2013-02-06 19:27:00,53.3,26.4,30.24,NE,44,2.0,2.0,35,0.00,,---,0.00,VWS V14.01,2013-02-07 00:27:00,
2013-02-06 19:32:00,53.1,26.2,30.25,NE,42,2.0,3.0,35,0.00,,---,0.00,VWS V14.01,2013-02-07 00:32:00,
2013-02-06 19:37:00,53.0,26.1,30.25,NE,49,3.0,3.0,35,0.00,,---,0.00,VWS V14.01,2013-02-07 00:37:00,
2013-02-06 19:42:00,52.9,26.7,30.25,ENE,58,2.0,3.0,36,0.00,,---,0.00,VWS V14.01,2013-02-07 00:42:00,
2013-02-06 19:47:00,52.8,26.6,30.25,ENE,58,3.0,3.0,36,0.00,,---,0.00,VWS V14.01,2013-02-07 00:47:00,
2013-02-06 19:52:00,52.6,26.4,30.25,ENE,57,2.0,2.0,36,0.00,,---,0.00,VWS V14.01,2013-02-07 00:52:00,
2013-02-06 19:57:00,52.4,26.9,30.25,ENE,58,3.0,3.0,37,0.00,,---,0.00,VWS V14.01,2013-02-07 00:57:00,
2013-02-06 20:02:00,52.3,26.8,30.25,ENE,57,3.0,4.0,37,0.00,,---,0.00,VWS V14.01,2013-02-07 01:02:00,
2013-02-06 20:07:00,52.2,26.7,30.25,NE,54,3.0,5.0,37,0.00,,---,0.00,VWS V14.01,2013-02-07 01:07:00,
2013-02-06 20:12:00,52.1,26.6,30.26,NE,44,3.0,4.0,37,0.00,,---,0.00,VWS V14.01,2013-02-07 01:12:00,
2013-02-06 20:17:00,51.9,27.1,30.26,NE,47,4.0,5.0,38,0.00,,---,0.00,VWS V14.01,2013-02-07 01:17:00,
2013-02-06 20:22:00,51.8,27.0,30.26,ENE,63,3.0,4.0,38,0.00,,---,0.00,VWS V14.01,2013-02-07 01:22:00,
2013-02-06 20:27:00,51.6,27.5,30.26,ENE,76,3.0,3.0,39,0.00,,---,0.00,VWS V14.01,2013-02-07 01:27:00,
2013-02-06 20:32:00,51.4,27.3,30.26,East,82,5.0,6.0,39,0.00,,---,0.00,VWS V14.01,2013-02-07 01:32:00,
2013-02-06 20:37:00,51.0,27.5,30.27,East,83,3.0,3.0,40,0.00,,---,0.00,VWS V14.01,2013-02-07 01:37:00,
2013-02-06 20:42:00,50.8,27.4,30.27,ENE,67,3.0,4.0,40,0.00,,---,0.00,VWS V14.01,2013-02-07 01:42:00,
2013-02-06 20:47:00,50.7,27.9,30.26,ENE,57,4.0,5.0,41,0.00,,---,0.00,VWS V14.01,2013-02-07 01:47:00,
2013-02-06 20:52:00,50.7,27.9,30.27,East,83,6.0,7.0,41,0.00,,---,0.00,VWS V14.01,2013-02-07 01:52:00,
2013-02-06 20:57:00,50.5,27.7,30.27,ENE,76,3.0,6.0,41,0.00,,---,0.00,VWS V14.01,2013-02-07 01:57:00,
2013-02-06 21:02:00,50.3,27.5,30.27,East,81,5.0,5.0,41,0.00,,---,0.00,VWS V14.01,2013-02-07 02:02:00,
2013-02-06 21:07:00,50.2,28.0,30.27,East,92,5.0,5.0,42,0.00,,---,0.00,VWS V14.01,2013-02-07 02:07:00,
2013-02-06 21:12:00,50.0,27.8,30.28,ENE,71,3.0,3.0,42,0.00,,---,0.00,VWS V14.01,2013-02-07 02:12:00,
2013-02-06 21:17:00,49.9,27.7,30.28,ENE,75,3.0,4.0,42,0.00,,---,0.00,VWS V14.01,2013-02-07 02:17:00,
2013-02-06 21:22:00,49.7,28.1,30.28,ENE,70,4.0,4.0,43,0.00,,---,0.00,VWS V14.01,2013-02-07 02:22:00,
2013-02-06 21:27:00,49.5,28.0,30.28,ENE,76,4.0,6.0,43,0.00,,---,0.00,VWS V14.01,2013-02-07 02:27:00,
2013-02-06 21:32:00,49.3,27.8,30.28,East,83,3.0,3.0,43,0.00,,---,0.00,VWS V14.01,2013-02-07 02:32:00,
2013-02-06 21:37:00,49.1,28.1,30.28,East,86,5.0,5.0,44,0.00,,---,0.00,VWS V14.01,2013-02-07 02:37:00,
2013-02-06 21:42:00,49.0,28.0,30.28,East,89,6.0,6.0,44,0.00,,---,0.00,VWS V14.01,2013-02-07 02:42:00,
2013-02-06 21:47:00,48.9,28.0,30.28,ENE,66,5.0,7.0,44,0.00,,---,0.00,VWS V14.01,2013-02-07 02:47:00,
2013-02-06 21:52:00,48.8,27.9,30.28,ENE,71,5.0,5.0,44,0.00,,---,0.00,VWS V14.01,2013-02-07 02:52:00,
2013-02-06 21:57:00,48.8,27.9,30.28,ENE,78,4.0,6.0,44,0.00,,---,0.00,VWS V14.01,2013-02-07 02:57:00,
2013-02-06 22:02:00,48.5,28.1,30.27,East,92,3.0,5.0,45,0.00,,---,0.00,VWS V14.01,2013-02-07 03:02:00,
2013-02-06 22:07:00,48.2,27.9,30.27,East,84,5.0,5.0,45,0.00,,---,0.00,VWS V14.01,2013-02-07 03:07:00,
2013-02-06 22:12:00,48.1,28.3,30.27,East,94,5.0,6.0,46,0.00,,---,0.00,VWS V14.01,2013-02-07 03:12:00,
2013-02-06 22:17:00,47.7,28.0,30.27,ENE,71,3.0,5.0,46,0.00,,---,0.00,VWS V14.01,2013-02-07 03:17:00,
2013-02-06 22:22:00,47.6,28.4,30.27,East,79,5.0,6.0,47,0.00,,---,0.00,VWS V14.01,2013-02-07 03:22:00,
2013-02-06 22:27:00,47.5,28.3,30.27,East,88,5.0,6.0,47,0.00,,---,0.00,VWS V14.01,2013-02-07 03:27:00,
2013-02-06 22:32:00,47.4,28.2,30.27,East,80,5.0,5.0,47,0.00,,---,0.00,VWS V14.01,2013-02-07 03:32:00,
2013-02-06 22:37:00,47.2,28.0,30.27,East,83,3.0,5.0,47,0.00,,---,0.00,VWS V14.01,2013-02-07 03:37:00,
2013-02-06 22:42:00,47.2,28.0,30.27,ENE,71,3.0,5.0,47,0.00,,---,0.00,VWS V14.01,2013-02-07 03:42:00,
2013-02-06 22:47:00,47.2,28.0,30.27,East,83,3.0,3.0,47,0.00,,---,0.00,VWS V14.01,2013-02-07 03:47:00,
2013-02-06 22:52:00,47.2,28.0,30.27,ENE,71,4.0,4.0,47,0.00,,---,0.00,VWS V14.01,2013-02-07 03:52:00,
2013-02-06 22:57:00,47.4,27.7,30.28,ENE,74,10.0,10.0,46,0.00,,---,0.00,VWS V14.01,2013-02-07 03:57:00,
2013-02-06 23:02:00,47.4,28.2,30.28,East,90,5.0,6.0,47,0.00,,---,0.00,VWS V14.01,2013-02-07 04:02:00,
2013-02-06 23:07:00,47.2,28.5,30.28,East,86,5.0,5.0,48,0.00,,---,0.00,VWS V14.01,2013-02-07 04:07:00,
2013-02-06 23:12:00,46.8,28.7,30.28,ESE,113,10.0,10.0,49,0.00,,---,0.00,VWS V14.01,2013-02-07 04:12:00,
2013-02-06 23:17:00,46.5,29.4,30.28,East,90,8.0,8.0,51,0.00,,---,0.00,VWS V14.01,2013-02-07 04:17:00,
2013-02-06 23:22:00,46.2,29.6,30.29,ENE,78,7.0,7.0,52,0.00,,---,0.00,VWS V14.01,2013-02-07 04:22:00,
2013-02-06 23:27:00,45.9,30.2,30.29,ESE,103,12.0,12.0,54,0.00,,---,0.00,VWS V14.01,2013-02-07 04:27:00,
2013-02-06 23:32:00,45.7,31.4,30.29,East,94,13.0,13.0,57,0.00,,---,0.00,VWS V14.01,2013-02-07 04:32:00,
2013-02-06 23:37:00,45.4,32.3,30.30,ENE,76,4.0,9.0,60,0.00,,---,0.00,VWS V14.01,2013-02-07 04:37:00,
2013-02-06 23:42:00,45.1,32.5,30.31,East,88,6.0,7.0,61,0.00,,---,0.00,VWS V14.01,2013-02-07 04:42:00,
2013-02-06 23:47:00,44.9,33.1,30.32,East,96,3.0,5.0,63,0.00,,---,0.00,VWS V14.01,2013-02-07 04:47:00,
2013-02-06 23:52:00,44.7,33.7,30.32,ENE,77,7.0,9.0,65,0.00,,---,0.00,VWS V14.01,2013-02-07 04:52:00,
2013-02-06 23:57:00,44.5,34.2,30.32,ESE,109,4.0,8.0,67,0.00,,---,0.00,VWS V14.01,2013-02-07 04:57:00,